Location: Houston
(29.7630°N, 95.3630°W)
Time: 20:49:42
(UTC-05:00)

Saudisat 1A - Visible Passes

Search period start: 25 October 2014 00:00
Search period end: 03 November 2014 23:00
Orbit: 598 x 608 km, 64.6° (Epoch: 24 October)

Date Brightness Start Highest point End Pass type
(mag) Time Alt. Az. Time Alt. Az. Time Alt. Az.
26 Oct 11.2 06:21:56 10° SE 06:24:19 14° ESE 06:26:42 10° ENE visible
27 Oct 10.1 06:32:22 10° S 06:36:11 30° ESE 06:40:02 10° NE visible
28 Oct 8.4 06:43:49 10° SSW 06:48:09 67° ESE 06:52:30 10° NNE visible
29 Oct 8.1 06:55:55 10° SW 07:00:12 56° WNW 07:04:31 10° NNE visible
30 Oct 10.5 05:29:44 10° SSE 05:33:00 21° ESE 05:36:17 10° ENE visible
31 Oct 9.1 05:41:31 15° S 05:44:53 44° ESE 05:49:04 10° NE visible
01 Nov 7.8 05:55:45 50° SW 05:56:52 84° WNW 06:01:16 10° NNE visible
02 Nov 8.5 05:09:17 38° NW 05:09:17 38° NW 05:13:04 10° N visible
03 Nov 9.7 05:22:22 18° NNW 05:22:22 18° NNW 05:24:23 10° N visible
